Regional Weather Roundup
Issued by NWS

Home | Current Version | Previous Version | Graphics & Text | Print | Product List | Glossary On
Versions: 1 2 3 4 5 6 7 8 9 10 11 12 13 14 15 16 17 18 19 20 21 22 23 24 25 26 27 28 29 30 31 32 33 34 35 36 37 38 39 40 41 42 43 44 45 46 47 48 49 50
000
ASUS45 KBOI 281410
RWRID

IDAHO REGIONAL WEATHER ROUNDUP
NATIONAL WEATHER SERVICE BOISE ID
800 AM MDT TUE MAR 28 2017

NOTE: "FAIR" INDICATES FEW OR NO CLOUDS BELOW 12000 FEET
WITH NO SIGNIFICANT WEATHER AND/OR OBSTRUCTIONS TO VISIBILITY

IDZ012-014-281500-
SOUTHWEST IDAHO


CITY           SKY/WX    TMP DP  RH WIND       PRES   REMARKS
BOISE          CLEAR     34  30  85 CALM      30.26R
CALDWELL       CLEAR     36  31  82 W6        30.29R WCI  31
MOUNTAIN HOME  CLEAR     33  33 100 NW9       30.25R WCI  25
$$

IDZ016-017-281500-
SOUTHCENTRAL IDAHO


CITY           SKY/WX    TMP DP  RH WIND       PRES   REMARKS
BURLEY         CLOUDY    35  27  72 W17       30.21R WCI  25
JEROME         CLEAR     31  29  92 SW7       30.21R WCI  24
TWIN FALLS     CLEAR     32  25  75 S12       30.21R WCI  23
$$

IDZ019>023-281500-
SOUTHEAST IDAHO


CITY           SKY/WX    TMP DP  RH WIND       PRES   REMARKS
IDAHO FALLS    PTCLDY    31  29  92 S5        30.18R WCI  26
POCATELLO      PTCLDY    34  31  88 SW14      30.21R WCI  25
REXBURG        FOG       31  31 100 VRB3      30.16R VSB<1/4
$$

IDZ006-010-011-018-031-032-281500-
CENTRAL IDAHO MOUNTAINS


CITY           SKY/WX    TMP DP  RH WIND       PRES   REMARKS
MCCALL         CLEAR     22  18  85 CALM      30.19S
HAILEY         PTCLDY    30  21  69 NW10      30.19R WCI  21
STANLEY          N/A     14  12  92 S3        30.21S
SALMON         CLOUDY    32  27  80 CALM      30.21S
CHALLIS        CLEAR     25  20  81 CALM      30.21R
$$

IDZ002-004-006-007-026-281500-
NORTHERN IDAHO


CITY           SKY/WX    TMP DP  RH WIND       PRES   REMARKS
LEWISTON       MOCLDY    36  32  85 CALM      30.26S
LOWELL           N/A     39  37  92 N3        30.32R
COEUR D`ALENE  CLOUDY    39  34  82 S10       30.22S WCI  32
MULLAN PASS    FOG       26  25  96 VRB5      30.12S VSB 1/4 WCI  20
$$



USA.gov is the U.S. government's official web portal to all federal, state and local government web resources and services.